SIA21 EDDF-WSSS

Flight info

Callsign SIA21
Flight time N/A
Altitude 31000
Route SULUS7S SULUS Z650 VEMUT/N0478F350 DCT NELPA DCT PEPIK DCT AMRAX DCT NARKA DCT RULES DCT ELROM DCT MOBRA DCT DENAK DCT DINRO DCT UDROS DCT ABSAX DCT REBLO/N0487F370 P130 MAMED B449 RANAH L750 ZB G202 RK/N0487F390 P628 IBANI L510 GURVI T1 BBS L759 LADER/N0482F410 L759 PUT B579 VPL Y503 RINBA Y507 MAKNA Y511 TOPOR A464 ARAMA ARAMA1A
Aircraft B772/H-SDE2E3FGHIJ5LORVWXY/LB1D1

Departure

Time 2026-05-04 21:15
Airport Frankfurt Main Airport (EDDF)

Arrival

Time N/A
Airport Singapore Changi Airport (WSSS)
Time Latitude Longitude Altitude Speed Heading
2026-05-04 20:56 50.05011 8.57520 372 ft 0 kts 22°
2026-05-04 21:02 50.05010 8.57520 372 ft 0 kts 22°
2026-05-04 21:04 50.05009 8.57519 372 ft 1 kts 19°
2026-05-04 21:05 50.04995 8.57516 372 ft 2 kts
2026-05-04 21:05 50.04980 8.57515 372 ft 2 kts
2026-05-04 21:05 50.04965 8.57513 372 ft 2 kts
2026-05-04 21:05 50.04952 8.57511 372 ft 1 kts 27°
2026-05-04 21:06 50.04944 8.57497 371 ft 1 kts 86°
2026-05-04 21:06 50.04945 8.57484 371 ft 1 kts 115°
2026-05-04 21:06 50.04946 8.57479 371 ft 0 kts 113°
2026-05-04 21:08 50.04938 8.57509 371 ft 6 kts 113°
2026-05-04 21:08 50.04910 8.57614 372 ft 13 kts 113°
2026-05-04 21:09 50.04865 8.57777 373 ft 17 kts 113°
2026-05-04 21:09 50.04786 8.57906 374 ft 14 kts 163°
2026-05-04 21:09 50.04702 8.57862 374 ft 14 kts 239°
2026-05-04 21:09 50.04662 8.57707 372 ft 19 kts 250°
2026-05-04 21:10 50.04604 8.57460 370 ft 28 kts 250°
2026-05-04 21:10 50.04523 8.57123 368 ft 36 kts 250°
2026-05-04 21:10 50.04436 8.56761 366 ft 35 kts 250°
2026-05-04 21:10 50.04350 8.56409 363 ft 34 kts 249°
2026-05-04 21:11 50.04264 8.56063 361 ft 33 kts 249°
2026-05-04 21:11 50.04186 8.55726 360 ft 32 kts 251°
2026-05-04 21:11 50.04110 8.55401 358 ft 31 kts 251°
2026-05-04 21:11 50.04034 8.55084 356 ft 30 kts 250°
2026-05-04 21:12 50.03962 8.54779 355 ft 30 kts 250°
2026-05-04 21:12 50.03888 8.54478 353 ft 29 kts 246°
2026-05-04 21:12 50.03795 8.54199 352 ft 28 kts 248°
2026-05-04 21:12 50.03726 8.53910 350 ft 28 kts 250°
2026-05-04 21:13 50.03657 8.53629 349 ft 27 kts 249°
2026-05-04 21:13 50.03589 8.53353 347 ft 27 kts 250°
2026-05-04 21:13 50.03525 8.53082 346 ft 26 kts 250°
2026-05-04 21:13 50.03457 8.52823 345 ft 25 kts 248°
2026-05-04 21:14 50.03395 8.52614 344 ft 14 kts 220°
2026-05-04 21:14 50.03281 8.52595 343 ft 21 kts 180°
2026-05-04 21:14 50.03043 8.52601 342 ft 58 kts 180°
2026-05-04 21:14 50.02450 8.52599 341 ft 111 kts 181°
2026-05-04 21:15 50.01511 8.52612 339 ft 155 kts 180°
2026-05-04 21:15 50.00318 8.52627 353 ft 188 kts 179°
2026-05-04 21:15 49.99044 8.52919 839 ft 182 kts 157°
2026-05-04 21:15 49.98042 8.54130 1106 ft 191 kts 123°
2026-05-04 21:16 49.97666 8.56078 1376 ft 192 kts 83°
2026-05-04 21:16 49.98092 8.58050 1489 ft 198 kts 54°
2026-05-04 21:16 49.99063 8.59673 1621 ft 214 kts 43°
2026-05-04 21:16 50.00148 8.61317 1938 ft 224 kts 43°
2026-05-04 21:17 50.01295 8.63054 2196 ft 238 kts 43°
2026-05-04 21:17 50.02500 8.64927 2520 ft 249 kts 44°
2026-05-04 21:17 50.03574 8.67043 2967 ft 256 kts 65°
2026-05-04 21:17 50.03968 8.69707 3418 ft 262 kts 86°
2026-05-04 21:18 50.04045 8.72629 3673 ft 276 kts 88°
2026-05-04 21:18 50.04066 8.75649 4080 ft 284 kts 89°
2026-05-04 21:18 50.04099 8.78758 4447 ft 294 kts 89°
2026-05-04 21:18 50.04153 8.81936 4808 ft 303 kts 89°
2026-05-04 21:19 50.04241 8.85235 5241 ft 309 kts 88°
2026-05-04 21:19 50.04356 8.88596 5665 ft 316 kts 88°
2026-05-04 21:19 50.04477 8.92094 5815 ft 333 kts 88°
2026-05-04 21:19 50.04576 8.95763 6064 ft 344 kts 89°
2026-05-04 21:20 50.04677 8.99505 6458 ft 352 kts 89°
2026-05-04 21:20 50.04762 9.03275 6449 ft 349 kts 90°
2026-05-04 21:20 50.04803 9.06999 6237 ft 341 kts 90°
2026-05-04 21:20 50.04870 9.10610 6599 ft 332 kts 89°
2026-05-04 21:21 50.04980 9.14198 7138 ft 335 kts 89°
2026-05-04 21:21 50.05068 9.17821 7502 ft 342 kts 89°
2026-05-04 21:21 50.05168 9.21502 8174 ft 339 kts 89°
2026-05-04 21:21 50.05250 9.25193 8601 ft 345 kts 90°
2026-05-04 21:22 50.05304 9.28937 9028 ft 349 kts 90°
2026-05-04 21:22 50.05347 9.32660 9585 ft 349 kts 89°
2026-05-04 21:22 50.05441 9.36472 9979 ft 355 kts 89°
2026-05-04 21:22 50.05535 9.40314 10428 ft 358 kts 89°
2026-05-04 21:23 50.05621 9.44157 10934 ft 359 kts 89°
2026-05-04 21:23 50.05701 9.48012 11370 ft 364 kts 89°
2026-05-04 21:23 50.05782 9.52000 11529 ft 377 kts 89°
2026-05-04 21:23 50.05862 9.56146 11814 ft 386 kts 89°
2026-05-04 21:24 50.05942 9.60336 12296 ft 389 kts 89°
2026-05-04 21:24 50.06021 9.64518 12831 ft 391 kts 89°
2026-05-04 21:24 50.06100 9.68787 13395 ft 393 kts 90°
2026-05-04 21:24 50.06175 9.72998 13887 ft 396 kts 90°
2026-05-04 21:25 50.06251 9.77313 14356 ft 401 kts 90°
2026-05-04 21:25 50.06325 9.81614 14853 ft 404 kts 90°
2026-05-04 21:25 50.06399 9.85997 15401 ft 407 kts 90°
2026-05-04 21:25 50.06471 9.90406 15893 ft 410 kts 90°
2026-05-04 21:26 50.06543 9.94830 16379 ft 414 kts 90°
2026-05-04 21:26 50.06612 9.99287 16874 ft 417 kts 90°
2026-05-04 21:26 50.06681 10.03824 17386 ft 419 kts 90°
2026-05-04 21:26 50.06749 10.08338 17854 ft 422 kts 90°
2026-05-04 21:27 50.06815 10.12911 18295 ft 426 kts 90°
2026-05-04 21:27 50.06880 10.17523 18748 ft 429 kts 90°
2026-05-04 21:27 50.06944 10.22185 19176 ft 433 kts 90°
2026-05-04 21:27 50.07006 10.26830 19614 ft 436 kts 90°
2026-05-04 21:28 50.07067 10.31544 20081 ft 439 kts 90°
2026-05-04 21:28 50.07126 10.36302 20492 ft 442 kts 90°
2026-05-04 21:28 50.07184 10.41075 20883 ft 446 kts 91°
2026-05-04 21:28 50.07240 10.45915 21296 ft 449 kts 91°
2026-05-04 21:29 50.07294 10.50728 21700 ft 452 kts 91°
2026-05-04 21:29 50.07347 10.55601 22126 ft 454 kts 91°
2026-05-04 21:29 50.07399 10.60551 22533 ft 457 kts 91°
2026-05-04 21:29 50.07448 10.65464 22902 ft 460 kts 91°
2026-05-04 21:30 50.07385 10.70416 23235 ft 461 kts 98°
2026-05-04 21:30 50.06845 10.75303 23580 ft 461 kts 108°
2026-05-04 21:30 50.05923 10.80121 23964 ft 462 kts 110°
2026-05-04 21:30 50.04946 10.84870 24373 ft 464 kts 111°
2026-05-04 21:31 50.02957 10.94400 25038 ft 470 kts 111°
2026-05-04 21:31 50.01934 10.99258 25374 ft 473 kts 111°
2026-05-04 21:31 50.00908 11.04105 25781 ft 474 kts 111°
2026-05-04 21:32 49.99888 11.08910 26145 ft 476 kts 111°
2026-05-04 21:32 49.98837 11.13843 26447 ft 479 kts 111°
2026-05-04 21:32 49.97798 11.18704 26757 ft 482 kts 111°
2026-05-04 21:32 49.96737 11.23656 27082 ft 484 kts 111°
2026-05-04 21:33 49.95683 11.28623 27428 ft 485 kts 110°
2026-05-04 21:33 49.94642 11.33540 27769 ft 486 kts 110°
2026-05-04 21:33 49.93587 11.38508 28009 ft 490 kts 110°
2026-05-04 21:33 49.92529 11.43580 28252 ft 494 kts 108°
2026-05-04 21:34 49.92095 11.45909 28390 ft 494 kts 108°